AXY828N LSGS-EGLF

Flight info

Callsign AXY828N
Flight time 1h 33m
Altitude 24000
Route SAPRE L615 DINOX/N0441F280 L615 LISMO DCT DJL/N0454F340 DCT BRY DCT CLM DCT KOPOR DCT SOSUN DCT SUBIP UM8 ELDAX
Aircraft E190/M-SDE1E2E3FGHIJ3J4J7P2RWXY/LB1D1G1

Departure

Time 2026-04-19 22:02
Airport Sion Airport (LSGS)

Arrival

Time 2026-04-19 23:35
Airport Farnborough Airport (EGLF)
Time Latitude Longitude Altitude Speed Heading
2026-04-19 21:50 46.21782 7.32575 1586 ft 0 kts 343°
2026-04-19 21:55 46.21786 7.32573 1586 ft 1 kts 343°
2026-04-19 21:55 46.21798 7.32568 1586 ft 2 kts 345°
2026-04-19 21:55 46.21816 7.32572 1586 ft 3 kts 28°
2026-04-19 21:55 46.21829 7.32601 1586 ft 4 kts 73°
2026-04-19 21:56 46.21838 7.32646 1586 ft 5 kts 72°
2026-04-19 21:56 46.21851 7.32705 1586 ft 6 kts 72°
2026-04-19 21:56 46.21867 7.32779 1586 ft 8 kts 72°
2026-04-19 21:56 46.21886 7.32868 1586 ft 10 kts 73°
2026-04-19 21:57 46.21909 7.32974 1586 ft 11 kts 72°
2026-04-19 21:57 46.21934 7.33097 1586 ft 13 kts 73°
2026-04-19 21:57 46.21964 7.33237 1586 ft 15 kts 72°
2026-04-19 21:57 46.21997 7.33390 1586 ft 16 kts 73°
2026-04-19 21:58 46.22033 7.33558 1586 ft 18 kts 73°
2026-04-19 21:58 46.22072 7.33742 1586 ft 19 kts 74°
2026-04-19 21:58 46.22104 7.33896 1586 ft 1 kts 71°
2026-04-19 21:59 46.22105 7.33901 1586 ft 1 kts 71°
2026-04-19 22:00 46.22111 7.33923 1586 ft 3 kts 69°
2026-04-19 22:00 46.22136 7.33950 1586 ft 6 kts
2026-04-19 22:00 46.22184 7.33924 1586 ft 8 kts 304°
2026-04-19 22:00 46.22175 7.33834 1586 ft 9 kts 253°
2026-04-19 22:01 46.22161 7.33763 1586 ft 27 kts 254°
2026-04-19 22:01 46.22033 7.33157 1586 ft 95 kts 254°
2026-04-19 22:01 46.21779 7.31964 1588 ft 151 kts 253°
2026-04-19 22:01 46.21417 7.30433 1921 ft 166 kts 251°
2026-04-19 22:02 46.20988 7.28836 2487 ft 177 kts 244°
2026-04-19 22:02 46.20359 7.27290 3102 ft 176 kts 236°
2026-04-19 22:02 46.19562 7.25858 3695 ft 190 kts 229°
2026-04-19 22:02 46.18892 7.24262 4317 ft 190 kts 245°
2026-04-19 22:03 46.18207 7.22599 4977 ft 196 kts 237°
2026-04-19 22:03 46.17450 7.20969 5620 ft 199 kts 236°
2026-04-19 22:03 46.16678 7.19335 6250 ft 198 kts 236°
2026-04-19 22:03 46.15891 7.17687 6879 ft 202 kts 236°
2026-04-19 22:04 46.15078 7.15994 7540 ft 212 kts 236°
2026-04-19 22:04 46.14226 7.14227 8207 ft 222 kts 236°
2026-04-19 22:04 46.13311 7.12334 8772 ft 239 kts 236°
2026-04-19 22:04 46.12336 7.10323 9436 ft 251 kts 236°
2026-04-19 22:05 46.11332 7.08255 10086 ft 256 kts 236°
2026-04-19 22:05 46.10323 7.06178 10723 ft 258 kts 236°
2026-04-19 22:05 46.09288 7.04049 11368 ft 260 kts 236°
2026-04-19 22:05 46.08248 7.01913 12025 ft 268 kts 237°
2026-04-19 22:06 46.07162 6.99683 12688 ft 279 kts 237°
2026-04-19 22:06 46.06022 6.97341 13050 ft 297 kts 236°
2026-04-19 22:06 46.04814 6.94867 13160 ft 302 kts 236°
2026-04-19 22:06 46.03619 6.92420 13172 ft 303 kts 236°
2026-04-19 22:07 46.02409 6.89943 13175 ft 302 kts 236°
2026-04-19 22:07 46.01202 6.87469 13172 ft 301 kts 237°
2026-04-19 22:07 46.00002 6.85007 13172 ft 301 kts 237°
2026-04-19 22:07 45.98805 6.82555 13347 ft 299 kts 237°
2026-04-19 22:08 45.97812 6.79995 13741 ft 299 kts 257°
2026-04-19 22:08 45.97807 6.77070 14188 ft 296 kts 288°
2026-04-19 22:08 45.98877 6.74587 14642 ft 297 kts 319°
2026-04-19 22:08 46.00662 6.73099 15116 ft 300 kts 334°
2026-04-19 22:09 46.02564 6.71894 15658 ft 301 kts 335°
2026-04-19 22:09 46.04516 6.70688 16184 ft 303 kts 335°
2026-04-19 22:09 46.06440 6.69512 16689 ft 305 kts 335°
2026-04-19 22:09 46.08418 6.68309 17217 ft 307 kts 335°
2026-04-19 22:10 46.10371 6.67122 17735 ft 308 kts 334°
2026-04-19 22:10 46.12345 6.65922 18262 ft 310 kts 334°
2026-04-19 22:10 46.14375 6.64688 18817 ft 322 kts 334°
2026-04-19 22:10 46.16464 6.63417 19378 ft 333 kts 334°
2026-04-19 22:11 46.18624 6.62102 19943 ft 343 kts 334°
2026-04-19 22:11 46.20842 6.60752 20509 ft 346 kts 334°
2026-04-19 22:11 46.23040 6.59412 21038 ft 349 kts 334°
2026-04-19 22:11 46.25296 6.58036 21598 ft 351 kts 334°
2026-04-19 22:12 46.27537 6.56667 22157 ft 354 kts 334°
2026-04-19 22:12 46.29787 6.55293 22710 ft 346 kts 333°
2026-04-19 22:12 46.31962 6.53964 23233 ft 332 kts 333°
2026-04-19 22:12 46.34087 6.52662 23785 ft 333 kts 333°
2026-04-19 22:13 46.36214 6.51357 24360 ft 335 kts 333°
2026-04-19 22:13 46.38364 6.50038 24935 ft 337 kts 333°
2026-04-19 22:13 46.40521 6.48713 25511 ft 341 kts 333°
2026-04-19 22:13 46.42714 6.47366 26076 ft 343 kts 332°
2026-04-19 22:14 46.44913 6.46014 26642 ft 345 kts 332°
2026-04-19 22:14 46.46979 6.44351 27235 ft 338 kts 314°
2026-04-19 22:14 46.48583 6.41918 27879 ft 337 kts 309°
2026-04-19 22:14 46.50165 6.39349 28453 ft 341 kts 309°
2026-04-19 22:15 46.51740 6.36763 29022 ft 345 kts 308°
2026-04-19 22:15 46.53338 6.34125 29605 ft 348 kts 307°
2026-04-19 22:15 46.54932 6.31487 30176 ft 350 kts 308°
2026-04-19 22:15 46.56548 6.28811 30769 ft 353 kts 307°
2026-04-19 22:16 46.58160 6.26137 31319 ft 355 kts 307°
2026-04-19 22:16 46.59802 6.23410 31856 ft 356 kts 308°
2026-04-19 22:16 46.61432 6.20700 32376 ft 358 kts 308°
2026-04-19 22:16 46.63075 6.17966 32901 ft 358 kts 308°
2026-04-19 22:17 46.64720 6.15227 33414 ft 359 kts 308°
2026-04-19 22:17 46.66357 6.12497 33924 ft 359 kts 308°
2026-04-19 22:17 46.66682 6.11955 34026 ft 359 kts 308°
2026-04-19 22:17 46.68341 6.09205 34543 ft 358 kts 308°
2026-04-19 22:18 46.69980 6.06487 35010 ft 358 kts 308°
2026-04-19 22:18 46.71603 6.03792 35374 ft 356 kts 308°
2026-04-19 22:18 46.73225 6.01091 35716 ft 354 kts 308°
2026-04-19 22:18 46.74845 5.98374 36051 ft 351 kts 308°
2026-04-19 22:19 46.76421 5.95730 36399 ft 348 kts 308°
2026-04-19 22:19 46.78000 5.93076 36856 ft 344 kts 308°
2026-04-19 22:19 46.79546 5.90477 37310 ft 340 kts 308°
2026-04-19 22:19 46.81093 5.87873 37731 ft 336 kts 308°
2026-04-19 22:20 46.82610 5.85317 38062 ft 335 kts 308°
2026-04-19 22:20 46.85709 5.80087 38169 ft 349 kts 308°
2026-04-19 22:21 46.86299 5.79091 38172 ft 352 kts 308°
2026-04-19 22:21 46.87214 5.77545 38174 ft 357 kts 308°
2026-04-19 22:22 46.90547 5.71941 38182 ft 374 kts 308°
2026-04-19 22:22 46.94030 5.66072 38185 ft 390 kts 308°
2026-04-19 22:23 46.97651 5.59957 38190 ft 406 kts 309°
2026-04-19 22:23 47.01402 5.53607 38186 ft 419 kts 309°
2026-04-19 22:24 47.05225 5.47123 38189 ft 418 kts 309°
2026-04-19 22:24 47.09014 5.40678 38180 ft 418 kts 309°
2026-04-19 22:25 47.12819 5.34191 38186 ft 417 kts 308°
2026-04-19 22:25 47.16591 5.27746 38192 ft 417 kts 308°
2026-04-19 22:26 47.20362 5.21284 38188 ft 416 kts 308°
2026-04-19 22:26 47.22252 5.18041 38311 ft 417 kts 308°
2026-04-19 22:26 47.24134 5.14807 38209 ft 417 kts 308°
2026-04-19 22:26 47.26011 5.11580 38077 ft 416 kts 308°
2026-04-19 22:27 47.27936 5.08359 38217 ft 418 kts 311°
2026-04-19 22:27 47.31951 5.02253 38263 ft 420 kts 311°
2026-04-19 22:28 47.35950 4.96103 38208 ft 416 kts 311°
2026-04-19 22:28 47.39940 4.89946 38187 ft 415 kts 311°
2026-04-19 22:29 47.43908 4.83809 38193 ft 417 kts 311°
2026-04-19 22:29 47.47915 4.77597 38184 ft 417 kts 311°
2026-04-19 22:30 47.51907 4.71395 38190 ft 417 kts 311°
2026-04-19 22:30 47.55899 4.65177 38188 ft 416 kts 311°
2026-04-19 22:31 47.59853 4.59002 38185 ft 415 kts 311°
2026-04-19 22:31 47.63823 4.52790 38197 ft 416 kts 311°
2026-04-19 22:32 47.67786 4.46573 38198 ft 417 kts 311°
2026-04-19 22:32 47.71745 4.40348 38208 ft 417 kts 311°
2026-04-19 22:33 47.75706 4.34105 38196 ft 416 kts 311°
2026-04-19 22:33 47.79651 4.27872 38212 ft 414 kts 311°
2026-04-19 22:34 47.83591 4.21633 38210 ft 415 kts 310°
2026-04-19 22:34 47.87528 4.15383 38197 ft 414 kts 310°
2026-04-19 22:35 47.91456 4.09133 38204 ft 415 kts 311°
2026-04-19 22:35 47.95394 4.02850 38205 ft 416 kts 311°
2026-04-19 22:36 47.99317 3.96580 38205 ft 415 kts 311°
2026-04-19 22:36 48.03236 3.90299 38198 ft 414 kts 311°
2026-04-19 22:37 48.07156 3.84002 38219 ft 415 kts 311°
2026-04-19 22:37 48.11086 3.77672 38219 ft 414 kts 311°
2026-04-19 22:38 48.14990 3.71371 38235 ft 416 kts 311°
2026-04-19 22:38 48.18904 3.65038 38227 ft 416 kts 311°
2026-04-19 22:39 48.22820 3.58685 38235 ft 416 kts 311°
2026-04-19 22:39 48.26729 3.52329 38222 ft 415 kts 311°
2026-04-19 22:40 48.30620 3.45988 38233 ft 415 kts 311°
2026-04-19 22:40 48.34513 3.39627 38228 ft 414 kts 311°
2026-04-19 22:41 48.38397 3.33265 38234 ft 414 kts 310°
2026-04-19 22:41 48.42950 3.27925 38235 ft 422 kts 329°
2026-04-19 22:42 48.48395 3.24535 38226 ft 424 kts 334°
2026-04-19 22:42 48.53803 3.21123 38226 ft 424 kts 333°
2026-04-19 22:43 48.59213 3.17663 38236 ft 423 kts 333°
2026-04-19 22:43 48.64632 3.14186 38132 ft 425 kts 333°
2026-04-19 22:43 48.67313 3.12463 37753 ft 422 kts 333°
2026-04-19 22:44 48.69999 3.10736 37352 ft 416 kts 333°
2026-04-19 22:44 48.72634 3.09037 36950 ft 408 kts 333°
2026-04-19 22:44 48.75193 3.07387 36553 ft 401 kts 333°
2026-04-19 22:44 48.77733 3.05747 36154 ft 396 kts 333°
2026-04-19 22:45 48.80180 3.04165 35766 ft 391 kts 333°
2026-04-19 22:45 48.82665 3.02556 35357 ft 388 kts 333°
2026-04-19 22:45 48.85099 3.00841 34944 ft 381 kts 327°
2026-04-19 22:45 48.87397 2.98840 34542 ft 377 kts 326°
2026-04-19 22:46 48.89639 2.96881 34128 ft 373 kts 326°
2026-04-19 22:46 48.91883 2.94919 33726 ft 369 kts 326°
2026-04-19 22:46 48.94097 2.92983 33310 ft 368 kts 326°
2026-04-19 22:46 48.96366 2.90992 32920 ft 391 kts 326°
2026-04-19 22:47 48.98766 2.88889 32529 ft 406 kts 326°
2026-04-19 22:47 49.01201 2.86755 32112 ft 406 kts 326°
2026-04-19 22:47 49.03653 2.84602 31680 ft 401 kts 326°
2026-04-19 22:47 49.06028 2.82515 31258 ft 397 kts 326°
2026-04-19 22:48 49.08403 2.80424 30787 ft 393 kts 326°
2026-04-19 22:48 49.10764 2.78343 30288 ft 390 kts 326°
2026-04-19 22:48 49.13093 2.76288 29805 ft 387 kts 326°
2026-04-19 22:48 49.15419 2.74233 29309 ft 385 kts 326°
2026-04-19 22:49 49.17745 2.72176 28813 ft 383 kts 326°
2026-04-19 22:49 49.20038 2.70146 28321 ft 380 kts 326°
2026-04-19 22:49 49.22318 2.68126 27830 ft 378 kts 326°
2026-04-19 22:49 49.24569 2.66129 27341 ft 376 kts 326°
2026-04-19 22:50 49.26825 2.64126 26849 ft 373 kts 326°
2026-04-19 22:50 49.29074 2.62126 26368 ft 371 kts 326°
2026-04-19 22:50 49.31279 2.60165 25877 ft 368 kts 326°
2026-04-19 22:50 49.33469 2.58213 25387 ft 366 kts 327°
2026-04-19 22:51 49.35150 2.56714 25013 ft 364 kts 327°
2026-04-19 22:51 49.39491 2.52836 24036 ft 360 kts 326°
2026-04-19 22:51 49.41636 2.50915 23560 ft 367 kts 327°
2026-04-19 22:52 49.43910 2.48878 23104 ft 380 kts 327°
2026-04-19 22:52 49.46185 2.46839 22638 ft 381 kts 327°
2026-04-19 22:52 49.48455 2.44804 22155 ft 378 kts 327°
2026-04-19 22:52 49.50694 2.42756 21966 ft 371 kts 322°
2026-04-19 22:53 49.52502 2.39980 21981 ft 371 kts 309°
2026-04-19 22:53 49.54140 2.36956 21950 ft 371 kts 308°
2026-04-19 22:53 49.55770 2.33900 21536 ft 370 kts 307°
2026-04-19 22:53 49.57410 2.30803 21119 ft 368 kts 307°
2026-04-19 22:54 49.59019 2.27755 20706 ft 365 kts 307°
2026-04-19 22:54 49.60611 2.24732 20289 ft 363 kts 307°
2026-04-19 22:54 49.62188 2.21736 19871 ft 361 kts 307°
2026-04-19 22:54 49.63759 2.18747 19466 ft 359 kts 307°
2026-04-19 22:55 49.65290 2.15830 19044 ft 347 kts 307°
2026-04-19 22:55 49.66777 2.12994 18615 ft 333 kts 307°
2026-04-19 22:55 49.68199 2.10279 18182 ft 323 kts 307°
2026-04-19 22:55 49.69611 2.07580 17749 ft 323 kts 307°
2026-04-19 22:56 49.71022 2.04879 17343 ft 324 kts 307°
2026-04-19 22:56 49.72426 2.02191 16942 ft 323 kts 308°
2026-04-19 22:56 49.73835 1.99489 17038 ft 322 kts 308°
2026-04-19 22:56 49.75255 1.96764 17031 ft 324 kts 308°
2026-04-19 22:57 49.76651 1.94082 17035 ft 325 kts 308°
2026-04-19 22:57 49.78068 1.91357 17038 ft 324 kts 308°
2026-04-19 22:57 49.79485 1.88628 17029 ft 325 kts 308°
2026-04-19 22:57 49.80901 1.85900 17033 ft 326 kts 308°
2026-04-19 22:58 49.82301 1.83200 17034 ft 325 kts 308°
2026-04-19 22:58 49.83727 1.80445 17035 ft 325 kts 308°
2026-04-19 22:58 49.85130 1.77735 17034 ft 326 kts 308°
2026-04-19 22:58 49.86540 1.75005 17047 ft 325 kts 308°
2026-04-19 22:59 49.87961 1.72252 17049 ft 326 kts 308°
2026-04-19 22:59 49.89370 1.69520 17044 ft 324 kts 308°
2026-04-19 22:59 49.90781 1.66780 17050 ft 326 kts 308°
2026-04-19 22:59 49.92191 1.64040 17055 ft 325 kts 308°
2026-04-19 23:00 49.93584 1.61331 17051 ft 325 kts 308°
2026-04-19 23:00 49.95007 1.58562 17052 ft 326 kts 308°
2026-04-19 23:00 49.96402 1.55841 17051 ft 326 kts 308°
2026-04-19 23:00 49.97813 1.53088 17053 ft 326 kts 308°
2026-04-19 23:01 49.99371 1.50544 17057 ft 327 kts 317°
2026-04-19 23:01 50.01103 1.48213 17055 ft 329 kts 317°
2026-04-19 23:01 50.02822 1.45887 17055 ft 328 kts 317°
2026-04-19 23:01 50.04514 1.43591 17055 ft 327 kts 317°
2026-04-19 23:02 50.06230 1.41259 17054 ft 328 kts 317°
2026-04-19 23:02 50.07949 1.38918 17061 ft 327 kts 317°
2026-04-19 23:02 50.09663 1.36583 17056 ft 328 kts 317°
2026-04-19 23:02 50.11375 1.34248 16700 ft 327 kts 317°
2026-04-19 23:03 50.13079 1.31921 16764 ft 325 kts 317°
2026-04-19 23:03 50.14791 1.29581 16763 ft 325 kts 316°
2026-04-19 23:03 50.16500 1.27244 16761 ft 326 kts 316°
2026-04-19 23:03 50.18195 1.24921 16756 ft 325 kts 316°
2026-04-19 23:04 50.19929 1.22543 16758 ft 325 kts 316°
2026-04-19 23:04 50.21610 1.20238 16755 ft 326 kts 317°
2026-04-19 23:04 50.23305 1.17909 16757 ft 325 kts 316°
2026-04-19 23:04 50.25011 1.15563 16762 ft 325 kts 317°
2026-04-19 23:05 50.26704 1.13233 16757 ft 326 kts 316°
2026-04-19 23:05 50.28408 1.10886 16756 ft 325 kts 317°
2026-04-19 23:05 50.30115 1.08532 16759 ft 327 kts 317°
2026-04-19 23:05 50.31816 1.06184 16764 ft 326 kts 317°
2026-04-19 23:06 50.33461 1.03910 16762 ft 325 kts 317°
2026-04-19 23:06 50.35175 1.01540 16754 ft 326 kts 317°
2026-04-19 23:06 50.36871 0.99191 16750 ft 327 kts 317°
2026-04-19 23:06 50.38553 0.96860 16748 ft 326 kts 317°
2026-04-19 23:07 50.40258 0.94494 16747 ft 327 kts 317°
2026-04-19 23:07 50.41959 0.92133 16748 ft 325 kts 317°
2026-04-19 23:07 50.43654 0.89762 16471 ft 332 kts 314°
2026-04-19 23:07 50.44834 0.86714 15738 ft 325 kts 288°
2026-04-19 23:08 50.45491 0.83423 15780 ft 316 kts 288°
2026-04-19 23:08 50.46138 0.80121 15643 ft 318 kts 288°
2026-04-19 23:08 50.46778 0.76786 15388 ft 321 kts 288°
2026-04-19 23:08 50.47401 0.73498 15051 ft 309 kts 288°
2026-04-19 23:09 50.47998 0.70336 14574 ft 302 kts 288°
2026-04-19 23:09 50.48587 0.67201 14135 ft 293 kts 288°
2026-04-19 23:09 50.48999 0.64138 13961 ft 280 kts 280°
2026-04-19 23:09 50.49287 0.61150 13952 ft 279 kts 281°
2026-04-19 23:10 50.49576 0.58126 13955 ft 281 kts 280°
2026-04-19 23:10 50.49867 0.55067 13954 ft 282 kts 280°
2026-04-19 23:10 50.50156 0.52014 13948 ft 283 kts 281°
2026-04-19 23:10 50.50444 0.48955 13953 ft 282 kts 281°
2026-04-19 23:11 50.50730 0.45914 13954 ft 283 kts 281°
2026-04-19 23:11 50.51014 0.42879 13951 ft 283 kts 281°
2026-04-19 23:11 50.51302 0.39797 13953 ft 283 kts 281°
2026-04-19 23:11 50.51583 0.36780 13956 ft 282 kts 281°
2026-04-19 23:12 50.51867 0.33723 13957 ft 283 kts 279°
2026-04-19 23:12 50.52153 0.30638 13960 ft 283 kts 279°
2026-04-19 23:12 50.52436 0.27568 13958 ft 281 kts 279°
2026-04-19 23:12 50.52716 0.24532 13959 ft 282 kts 279°
2026-04-19 23:13 50.52996 0.21474 13961 ft 282 kts 279°
2026-04-19 23:13 50.53275 0.18428 13960 ft 282 kts 279°
2026-04-19 23:13 50.53553 0.15387 13958 ft 283 kts 280°
2026-04-19 23:13 50.53830 0.12337 13961 ft 283 kts 280°
2026-04-19 23:14 50.54111 0.09238 13961 ft 283 kts 280°
2026-04-19 23:14 50.54386 0.06204 13961 ft 283 kts 280°
2026-04-19 23:14 50.54664 0.03115 13962 ft 283 kts 280°
2026-04-19 23:14 50.54937 0.00087 13964 ft 284 kts 280°
2026-04-19 23:15 50.55216 -0.03030 13967 ft 285 kts 279°
2026-04-19 23:15 50.55489 -0.06085 13965 ft 284 kts 279°
2026-04-19 23:15 50.55761 -0.09145 13966 ft 284 kts 279°
2026-04-19 23:15 50.56034 -0.12218 13966 ft 284 kts 279°
2026-04-19 23:16 50.56305 -0.15278 13967 ft 284 kts 279°
2026-04-19 23:16 50.56576 -0.18359 13970 ft 282 kts 279°
2026-04-19 23:16 50.56844 -0.21391 13969 ft 283 kts 279°
2026-04-19 23:16 50.57112 -0.24454 13971 ft 283 kts 280°
2026-04-19 23:17 50.57381 -0.27526 13970 ft 284 kts 280°
2026-04-19 23:17 50.57645 -0.30565 13973 ft 283 kts 280°
2026-04-19 23:17 50.57914 -0.33657 13971 ft 284 kts 280°
2026-04-19 23:17 50.58180 -0.36723 13975 ft 283 kts 280°
2026-04-19 23:18 50.58447 -0.39782 13970 ft 283 kts 281°
2026-04-19 23:18 50.59182 -0.42594 13906 ft 283 kts 309°
2026-04-19 23:18 50.60539 -0.44818 13622 ft 283 kts 315°
2026-04-19 23:18 50.61932 -0.46995 13292 ft 281 kts 315°
2026-04-19 23:19 50.63316 -0.49172 12957 ft 279 kts 315°
2026-04-19 23:19 50.64675 -0.51317 12628 ft 277 kts 315°
2026-04-19 23:19 50.66031 -0.53459 12299 ft 276 kts 315°
2026-04-19 23:19 50.67365 -0.55572 11973 ft 274 kts 315°
2026-04-19 23:20 50.68728 -0.57653 11637 ft 274 kts 323°
2026-04-19 23:20 50.70367 -0.59165 11322 ft 273 kts 331°
2026-04-19 23:20 50.72054 -0.60588 10994 ft 272 kts 332°
2026-04-19 23:20 50.73705 -0.61984 10669 ft 270 kts 331°
2026-04-19 23:21 50.75357 -0.63384 10342 ft 270 kts 331°
2026-04-19 23:21 50.76996 -0.64775 10012 ft 265 kts 331°
2026-04-19 23:21 50.78596 -0.66136 9684 ft 258 kts 330°
2026-04-19 23:21 50.80175 -0.67478 9370 ft 253 kts 331°
2026-04-19 23:22 50.81716 -0.68790 9068 ft 252 kts 331°
2026-04-19 23:22 50.83266 -0.70111 8765 ft 253 kts 331°
2026-04-19 23:22 50.84801 -0.71420 8490 ft 252 kts 331°
2026-04-19 23:22 50.86367 -0.72713 8210 ft 252 kts 337°
2026-04-19 23:23 50.88019 -0.73559 7939 ft 247 kts 342°
2026-04-19 23:23 50.89621 -0.74325 7656 ft 240 kts 342°
2026-04-19 23:23 50.91209 -0.75086 7372 ft 236 kts 342°
2026-04-19 23:23 50.92793 -0.75849 7091 ft 236 kts 342°
2026-04-19 23:24 50.94369 -0.76608 6839 ft 236 kts 342°
2026-04-19 23:24 50.95944 -0.77367 6588 ft 237 kts 342°
2026-04-19 23:24 50.97515 -0.78125 6339 ft 236 kts 342°
2026-04-19 23:24 50.99076 -0.78879 6088 ft 236 kts 342°
2026-04-19 23:25 51.00652 -0.79638 5835 ft 234 kts 344°
2026-04-19 23:25 51.02264 -0.79744 5596 ft 233 kts
2026-04-19 23:25 51.03857 -0.79374 5381 ft 230 kts
2026-04-19 23:25 51.05403 -0.79011 5141 ft 223 kts
2026-04-19 23:26 51.06927 -0.78655 4980 ft 215 kts
2026-04-19 23:26 51.08400 -0.78311 4819 ft 218 kts
2026-04-19 23:26 51.09917 -0.77856 4600 ft 219 kts
2026-04-19 23:26 51.11399 -0.77394 4381 ft 218 kts
2026-04-19 23:27 51.12913 -0.76921 4158 ft 218 kts 10°
2026-04-19 23:27 51.14350 -0.76404 4086 ft 207 kts 14°
2026-04-19 23:27 51.15722 -0.75777 4089 ft 205 kts 15°
2026-04-19 23:27 51.17113 -0.75135 4089 ft 206 kts 16°
2026-04-19 23:28 51.18293 -0.73836 4002 ft 211 kts 50°
2026-04-19 23:28 51.19125 -0.71902 3864 ft 208 kts 53°
2026-04-19 23:28 51.19912 -0.70029 3684 ft 201 kts 53°
2026-04-19 23:28 51.20676 -0.68209 3509 ft 195 kts 53°
2026-04-19 23:29 51.21428 -0.66419 3334 ft 191 kts 53°
2026-04-19 23:29 51.22161 -0.64675 3170 ft 190 kts 53°
2026-04-19 23:29 51.22903 -0.62909 3006 ft 187 kts 53°
2026-04-19 23:29 51.23618 -0.61210 2885 ft 185 kts 52°
2026-04-19 23:30 51.24347 -0.59523 2727 ft 185 kts 52°
2026-04-19 23:30 51.25089 -0.57808 2565 ft 185 kts 52°
2026-04-19 23:30 51.25848 -0.56151 2395 ft 184 kts 40°
2026-04-19 23:30 51.26992 -0.55492 2217 ft 175 kts 354°
2026-04-19 23:31 51.28118 -0.56232 2109 ft 177 kts 332°
2026-04-19 23:31 51.29168 -0.57239 2092 ft 177 kts 330°
2026-04-19 23:31 51.30204 -0.58277 2076 ft 174 kts 330°
2026-04-19 23:31 51.31209 -0.59311 2084 ft 173 kts 328°
2026-04-19 23:32 51.32203 -0.60376 2084 ft 174 kts 322°
2026-04-19 23:32 51.32738 -0.62089 2096 ft 182 kts 276°
2026-04-19 23:32 51.32344 -0.64018 2192 ft 189 kts 233°
2026-04-19 23:32 51.31578 -0.65687 2311 ft 184 kts 242°
2026-04-19 23:33 51.30999 -0.67361 2077 ft 165 kts 245°
2026-04-19 23:33 51.30479 -0.68923 1809 ft 151 kts 245°
2026-04-19 23:33 51.30006 -0.70349 1538 ft 141 kts 245°
2026-04-19 23:33 51.29565 -0.71661 1352 ft 131 kts 244°
2026-04-19 23:34 51.29116 -0.72962 1073 ft 135 kts 242°
2026-04-19 23:34 51.28673 -0.74278 723 ft 134 kts 245°
2026-04-19 23:34 51.28262 -0.75569 403 ft 127 kts 242°
2026-04-19 23:34 51.27885 -0.76705 249 ft 121 kts 244°
2026-04-19 23:35 51.27563 -0.77690 241 ft 71 kts 242°
2026-04-19 23:35 51.27429 -0.78088 241 ft 11 kts 242°
2026-04-19 23:35 51.27425 -0.78101 241 ft 2 kts 242°
2026-04-19 23:35 51.27393 -0.78196 241 ft 17 kts 241°
2026-04-19 23:36 51.27320 -0.78418 241 ft 25 kts 241°
2026-04-19 23:36 51.27249 -0.78678 241 ft 21 kts 297°
2026-04-19 23:36 51.27346 -0.78672 241 ft 15 kts 42°